User: anonymous   Login
Location: *
(48.8667°N, 2.3331°E)
Time: 13:58:17
(UTC+00:00)
Language:

Cosmos 1814 Rocket - Orbit

View from above orbital plane
View from above orbital plane
View from above satellite
View from above satellite

Ground track
Ground track

The orbit data is extracted from the following two-line orbital elements,

1 17304U 87006B   20191.75840916 -.00000086  00000-0 -19742-4 0  9992
2 17304  74.0561 194.5305 0028543 114.2045 246.2097 14.37695921754043
Epoch (UTC): 09 July 2020 18:12:06
Eccentricity: 0.0028543
inclination: 74.0561°
perigee height: 746 km
apogee height: 786 km
right ascension of ascending node: 194.5305°
argument of perigee: 114.2045°
revolutions per day: 14.37695921
mean anomaly at epoch: 246.2097°
orbit number at epoch: 75404

The dashed part of the orbit path shows where the satellite is in the earth's shadow,  

DLR